Regional Weather Roundup
Issued by NWS State College, PA

Current Version | Previous Version | Text Only | Print | Product List | Glossary On
Versions: 1 2 3 4 5 6 7 8 9 10 11 12 13 14 15 16 17 18 19 20 21 22 23 24 25 26 27 28 29 30 31 32 33 34 35 36 37 38 39 40 41 42 43 44 45 46 47 48 49 50
000
ASUS41 KCTP 210610
RWRCTP

REGIONAL WEATHER ROUNDUP
NATIONAL WEATHER SERVICE STATE COLLEGE PA
100 AM EST TUE FEB 21 2017

Note: "fair" indicates few or no clouds below 12,000 feet with no
significant weather and/or obstructions to visibility.

* = STATION THAT DOES NOT REPORT PRECIPITATION /E.G. RAIN...SNOW...ETC/
    THUNDER OR FOG.

PAZ002>004-007>009-013>016-020>023-029>032-210700-
WESTERN PENNSYLVANIA

CITY           SKY/WX    TMP DP  RH WIND       PRES   REMARKS
ERIE           PTCLDY    49  27  42 SE14G20   30.12F
MEADVILLE      CLOUDY    47  26  44 SE7       30.13F
FRANKLIN*      CLOUDY    43  27  52 SE10      30.17S
NEW CASTLE     FAIR      44  30  57 CALM      30.14F
BEAVER COUNTY  NOT AVBL
BUTLER*        CLOUDY    46  30  53 E10       30.16S
PITTSBURGH INT CLOUDY    47  31  53 E8        30.13F
PITTSBURGH     CLOUDY    49  27  42 SE7       30.14F
INDIANA*       CLEAR     46  30  53 E9        30.20F
LATROBE        CLOUDY    52  28  40 E9G17     30.17S
WASHINGTON CO* PTCLDY    37  34  87 CALM      30.14F
$$

PAZ004>006-010>012-017>019-024>028-033>037-041-042-045-046-049>053-210700-
CENTRAL PENNSYLVANIA

CITY           SKY/WX    TMP DP  RH WIND       PRES   REMARKS
BRADFORD       CLOUDY    34  19  54 SE6       30.20S
DUBOIS         PTCLDY    40  21  46 SE7       30.20R
CLEARFIELD       N/A    N/A N/A N/A MISG      30.25R
JOHNSTOWN      CLOUDY    43  28  55 SE9       30.20S
ALTOONA        CLOUDY    43  25  49 SE3       30.27R
STATE COLLEGE  PTCLDY    37  19  47 E5        30.28S
WILLIAMSPORT   PTCLDY    33  20  58 NE3       30.32F
SELINSGROVE    CLOUDY    32  23  69 NW3       30.32F
FT INDIANTOWN  CLOUDY    30  19  64 NE5       30.32F
CAPITAL CITY   CLOUDY    40  14  34 E6        30.33F
HARRISBURG     CLOUDY    40  15  36 CALM      30.32F
YORK           CLOUDY    36  23  59 SE3       30.32S
$$

PAZ038>040-043-044-047-048-054-055-060>062-067>071-210700-
EASTERN PENNSYLVANIA

CITY           SKY/WX    TMP DP  RH WIND       PRES   REMARKS
SCRANTON       CLOUDY    29  18  63 E5        30.32F
MOUNT POCONO   CLOUDY    27  13  55 E5        30.29F
ALLENTOWN      CLOUDY    32  14  47 CALM      30.35S
QUAKERTOWN*    CLEAR     28  16  59 CALM      30.35S
READING        CLOUDY    36  15  42 N3        30.34S
LANCASTER      CLOUDY    34  18  52 E7        30.32F
COATESVILLE    CLOUDY    37  12  35 CALM      30.34F
POTTSTOWN      CLOUDY    32  13  45 CALM      30.37R
BLUE BELL      CLEAR     32  18  55 CALM      30.35R
DOYLESTOWN     PTCLDY    34  14  43 NE3       30.34S
WILLOW GROVE   NOT AVBL
NORTH PHILA    CLEAR     35  16  45 NE7       30.37S
PHILADELPHIA   CLEAR     39  15  37 CALM      30.37R
$$



USA.gov is the U.S. government's official web portal to all federal, state and local government web resources and services.